Dawson Community Airport
KGDV : now visible

Airfield :











YOU CAN JOIN US ON...

 
LOGIN :

Register | Disclaimer

   EN    FR    IT 

 









Legend :    VFR   Marginal VFR   IFR   Intensive IFR   Very Intensive IFR
Visi :
Ceiling :
>= 8 km
>= 3000ft
5 to 8 km
1000 to 3000 ft
1500m to 5 km
500 to 1000 ft
800 to 1500m
200 to 500 ft
< 800m
< 200 ft
Symbols :   Thunderstorms  Fog  Heavy snow  Heavy precipitations  Wind > 20 kt






- Airport Elevation : 2458 ft


KGDV - Dawson Community

CURRENT METAR :
  • 211956Z AUTO 21007G17KT 10SM CLR 11/M09 A3009 RMK AO2 SLP208 T01111089

EXPIRED METARs :
  • 211856Z AUTO 23011G15KT 10SM CLR 10/M10 A3013 RMK AO2 SLP223 T01001100
  • 211756Z AUTO 23011KT 10SM CLR 09/M09 A3015 RMK AO2 SLP236 T00891094 10094 21100 58018

TAF KGDV
Valid from the 21 at 18:00 until the 22 at 18:00 UTC


211740Z 2118/2218 23009KT P6SM FEW200
KZLC FIR / North America



MET'MAP, your aeronautical weather chart ! - Copyright ORBIFLY December 2007 - Disclaimer

ORBIFLY MET'MAP TEAM :

Programming & Development : Alexandra Zaïnal
Concept & original design : Baudouin d'Aumeries
Assistance for programming : Marc-Olivier Méhu
Technical & hardware support : Manuel Goepfert

Contact : metmap@orbifly.com




SOURCES & CREDITS :

   NOAA       Earth
Advisory